Wind_Speed
33 34 35 34 32 31 29 28 27 24 24 23 22 21 21 20 19 17 16 17 18 20 22 23 24 27 30 32 34 37 40 43 46 49 52 54 55 56 58 57 56 58 59
29 33 35 34 30 28 27 25 25 25 23 24 24 21 19 19 18 18 20 20 20 20 22 24 25 27 31 35 37 41 44 47 49 52 55 57 58 55 55 56 58 61 59
29 30 34 33 30 27 26 27 25 25 25 24 22 20 20 20 19 20 19 20 21 22 24 27 29 31 34 37 39 44 47 50 55 56 56 54 54 54 58 59 62 63 60
30 27 27 28 28 28 27 26 26 27 25 23 21 20 21 21 20 20 21 23 24 26 28 30 32 34 37 40 44 49 51 55 56 56 53 53 56 58 60 61 63 61 61
31 29 27 27 27 27 27 27 27 27 25 22 22 22 21 21 22 24 25 26 28 30 30 32 35 38 40 44 49 54 57 55 54 52 53 56 57 60 62 63 63 65 61
33 31 28 27 28 28 28 29 28 26 24 23 24 23 23 24 25 27 28 30 32 33 35 36 39 41 45 50 54 56 58 57 56 54 56 57 58 62 65 65 64 61 57
36 34 32 30 29 28 29 28 27 26 25 26 26 27 27 28 29 30 32 34 34 37 40 41 43 46 49 53 57 59 60 60 57 57 58 59 62 65 65 63 61 61 60
39 36 34 32 32 31 29 27 27 28 28 28 28 29 31 31 33 33 33 36 40 41 43 45 49 51 55 58 60 62 65 61 60 58 58 62 64 63 64 65 64 61 63
42 40 37 35 33 31 31 29 29 29 30 31 32 34 35 36 37 37 39 43 44 46 47 49 53 56 59 63 66 66 66 62 59 60 63 64 63 63 63 63 64 65 66
46 43 40 38 37 35 35 33 34 34 34 35 36 37 39 40 43 45 47 50 49 50 52 54 58 61 64 66 69 68 65 62 62 64 65 66 67 68 68 66 67 68 65
49 47 45 42 40 40 39 38 39 38 38 39 41 43 44 45 47 48 49 50 51 55 57 60 62 66 67 69 70 67 66 65 65 68 70 72 71 73 69 71 71 67 64
54 50 48 47 46 45 44 43 43 43 43 43 44 46 47 49 49 51 51 54 56 59 60 63 67 68 68 70 69 68 66 68 70 71 73 75 75 75 75 74 71 66 65
57 56 54 51 50 48 47 47 48 49 48 47 47 49 51 52 53 55 57 60 63 63 65 67 70 69 70 69 68 67 70 71 73 74 76 77 78 78 79 75 71 66 63
60 58 57 55 53 51 52 52 53 52 52 52 52 52 55 55 58 59 63 63 65 67 69 71 70 69 69 67 68 72 71 74 75 77 79 82 81 83 80 75 70 66 65
67 62 59 58 58 57 56 57 57 56 55 56 56 57 59 61 62 64 66 68 69 70 71 71 69 70 70 71 74 75 75 76 80 83 83 85 86 83 81 75 70 67 61
66 66 63 63 61 59 60 60 59 59 59 60 60 61 63 65 66 68 69 71 73 74 71 69 71 72 75 76 78 77 79 80 83 85 87 87 86 85 78 75 70 65 60
73 70 70 67 65 65 64 62 62 63 62 63 63 65 67 69 70 70 73 73 74 71 70 71 74 78 80 78 77 79 79 82 86 89 87 92 90 84 78 72 68 63 63
74 72 71 72 71 69 68 68 68 66 66 68 68 69 70 71 73 75 75 75 74 72 75 77 77 78 81 81 83 82 84 87 89 90 95 95 94 84 76 68 66 65 64
75 75 75 73 73 72 70 70 70 69 71 71 71 72 73 75 75 73 72 71 72 75 75 78 79 80 82 86 85 89 92 93 94 96 100 98 90 80 75 71 68 66 64
79 78 77 76 74 73 73 72 73 73 72 72 73 75 75 74 74 70 72 75 77 77 79 81 82 85 86 89 91 94 96 99 101 102 101 98 88 82 81 76 73 72 70
81 81 80 79 77 75 74 74 75 73 74 75 77 75 75 73 73 76 79 80 82 82 84 86 88 87 91 94 98 100 104 106 107 110 104 89 85 87 84 85 84 81 78
83 83 81 79 78 78 79 78 77 76 75 74 74 71 72 75 77 77 78 79 84 88 89 90 92 94 96 101 104 108 107 110 112 105 97 91 88 89 91 94 94 90 85
84 83 81 80 78 77 77 78 79 79 78 75 74 74 76 78 80 80 80 83 87 91 94 97 98 100 103 106 110 112 113 113 106 99 95 95 95 98 102 100 96 90 86
89 86 82 80 80 80 78 76 72 72 71 73 76 79 83 85 86 88 89 91 92 94 96 99 102 104 109 110 113 116 116 109 99 93 96 102 106 106 97 93 92 90 88
90 89 87 83 80 79 78 78 76 76 77 80 82 85 86 89 91 92 96 97 97 98 99 103 106 108 111 114 116 114 102 98 98 101 102 107 106 98 95 88 85 84 84
91 90 89 86 85 84 83 83 83 83 85 86 87 89 91 93 95 97 99 100 103 103 105 106 108 111 115 117 114 100 97 98 102 108 105 98 97 94 92 90 85 82 78
Wind_Direction
228 229 228 227 229 231 234 238 240 244 247 252 253 258 257 265 272 280 284 286 284 285 288 294 300 300 306 310 311 310 310 311 313 314 313 313 313 314 314 312 313 315 315
224 224 226 226 230 234 237 236 240 241 244 246 251 255 261 267 272 275 279 286 290 296 301 304 307 311 312 312 312 313 313 313 313 313 314 312 312 313 315 314 314 313 312
221 223 223 225 229 230 231 234 234 238 241 246 250 259 263 265 272 279 286 291 296 300 303 307 309 308 309 310 312 314 315 314 314 312 312 313 315 315 317 314 313 313 312
227 226 223 223 225 226 228 227 233 239 241 246 252 258 262 268 273 280 285 290 296 301 305 307 306 305 307 309 311 312 312 313 313 310 311 313 314 314 315 313 313 312 311
227 229 228 225 224 225 227 229 235 238 242 247 253 256 263 272 275 281 286 290 294 298 300 302 302 302 304 306 309 311 313 314 314 311 312 314 315 314 312 311 311 312 311
228 231 233 232 230 231 234 235 234 238 243 248 254 258 266 274 278 280 283 289 293 295 297 297 301 302 305 308 309 310 314 314 313 311 313 314 314 312 311 312 311 311 310
230 231 232 233 230 228 230 233 239 243 246 251 255 260 266 271 275 279 285 289 291 295 296 298 299 300 303 307 310 310 314 314 312 311 313 313 312 312 310 310 309 310 311
231 231 232 233 231 232 234 238 244 248 249 252 257 261 265 270 275 279 283 288 290 291 293 296 298 299 303 307 311 313 316 315 314 313 312 311 313 313 312 312 313 311 310
234 234 234 235 235 237 239 242 246 249 254 258 262 266 270 274 276 278 284 287 289 291 295 298 300 302 305 308 311 314 316 314 312 312 311 312 314 315 314 314 314 312 312
232 235 236 238 240 243 245 245 248 252 257 260 262 262 266 272 277 281 284 288 289 292 294 298 301 304 306 311 314 315 312 311 309 309 311 315 315 317 317 315 313 310 310
233 234 237 238 241 245 248 249 252 254 258 261 265 269 271 274 277 280 284 287 290 292 294 298 301 305 308 311 313 311 308 308 307 310 313 315 316 316 316 315 313 308 308
236 237 239 240 242 244 247 250 253 258 261 263 267 271 274 276 278 282 286 288 290 293 296 300 303 306 307 309 309 307 306 306 310 312 313 315 315 316 315 314 310 306 305
237 238 241 243 245 247 249 254 257 259 262 266 270 274 276 279 283 285 288 290 292 293 297 300 303 304 306 305 305 304 305 307 309 310 311 314 315 315 314 312 309 304 303
236 240 241 243 246 248 251 254 257 259 262 266 268 272 276 280 284 287 290 292 293 295 298 300 301 302 302 301 303 305 306 306 307 308 313 314 314 315 313 312 309 305 305
238 239 242 244 248 249 252 255 259 262 265 268 271 274 276 281 283 287 291 294 295 297 299 300 298 298 300 302 303 305 306 305 307 311 312 313 313 313 311 310 306 306 303
236 239 242 245 247 250 253 256 259 263 266 269 273 276 279 282 285 289 291 293 296 297 298 295 297 300 301 302 303 303 305 307 308 309 310 311 311 311 309 307 305 302 301
238 240 243 247 249 252 254 256 260 262 266 269 273 276 279 283 285 287 290 292 293 292 291 293 299 301 302 302 302 303 305 306 306 308 309 310 310 309 307 303 301 298 296
238 242 244 246 250 253 256 259 261 264 268 272 273 276 278 281 285 288 289 291 289 290 294 300 301 301 301 301 301 302 302 305 306 308 307 308 309 306 303 300 297 294 294
240 241 243 247 250 253 254 258 262 266 268 271 273 275 278 281 283 285 286 286 291 296 299 300 301 301 300 301 302 302 303 306 307 307 308 308 306 301 300 296 293 293 292
242 244 245 246 248 253 257 259 262 264 267 270 273 276 279 281 282 281 283 286 292 295 298 297 298 299 300 300 303 303 305 305 306 307 306 307 303 298 298 296 294 294 292
241 243 246 248 250 252 254 256 260 264 266 269 273 277 278 278 279 283 288 291 292 294 296 296 298 298 299 300 301 302 303 305 306 306 307 301 298 299 298 297 296 295 294
243 245 247 250 254 256 257 258 260 263 267 271 273 274 274 278 283 286 288 291 293 293 296 297 298 298 299 300 301 303 304 305 305 306 302 299 299 299 299 298 297 294 290
245 247 250 252 253 257 261 263 265 267 269 269 270 270 272 276 280 284 286 286 289 293 295 297 298 299 300 301 302 303 304 306 305 302 302 300 300 300 297 293 291 288 285
245 247 249 252 254 256 259 261 262 265 267 269 272 275 277 279 281 282 284 285 289 292 295 296 298 300 300 301 303 304 304 305 301 299 300 300 300 298 294 291 288 285 284
245 247 249 251 254 256 257 259 261 262 264 267 269 273 278 281 284 286 287 290 293 294 295 297 298 299 301 302 303 304 301 299 300 300 301 300 297 295 293 289 286 284 282
246 248 249 251 253 255 257 258 260 262 264 267 271 274 277 280 284 286 290 293 293 296 296 297 299 300 303 303 303 300 298 300 301 301 298 297 294 294 291 288 287 285 281
Height
10916 10919 10922 10925 10928 10930 10933 10936 10939 10940 10941 10941 10942 10943 10943 10943 10943 10943 10943 10943 10943 10942 10943 10942 10942 10941 10940 10938 10937 10935 10932 10930 10928 10924 10921 10917 10914 10911 10907 10903 10899 10894 10890
10913 10915 10918 10921 10925 10927 10930 10933 10935 10935 10936 10938 10939 10940 10939 10940 10940 10940 10940 10940 10940 10940 10939 10938 10938 10937 10936 10934 10932 10929 10928 10925 10923 10920 10916 10912 10908 10905 10901 10897 10892 10887 10882
10909 10911 10914 10918 10922 10924 10927 10929 10930 10931 10932 10934 10935 10935 10936 10936 10937 10937 10936 10936 10936 10936 10936 10935 10934 10933 10931 10929 10927 10925 10923 10920 10918 10914 10910 10906 10902 10898 10895 10890 10884 10879 10874
10906 10908 10912 10915 10918 10921 10923 10924 10926 10928 10929 10929 10930 10931 10932 10933 10933 10933 10933 10933 10932 10932 10932 10931 10929 10928 10927 10925 10922 10920 10917 10914 10912 10907 10904 10900 10895 10891 10886 10881 10876 10871 10866
10902 10905 10908 10912 10914 10917 10919 10920 10921 10923 10924 10925 10926 10927 10928 10929 10929 10929 10929 10929 10928 10928 10927 10926 10924 10923 10921 10919 10917 10913 10910 10907 10904 10901 10897 10892 10888 10883 10878 10873 10868 10862 10857
10899 10902 10905 10907 10910 10912 10914 10916 10917 10919 10920 10921 10923 10924 10925 10925 10925 10925 10925 10925 10924 10923 10922 10921 10919 10917 10915 10913 10910 10907 10903 10898 10895 10892 10890 10885 10881 10876 10871 10866 10860 10854 10849
10894 10898 10901 10903 10905 10907 10909 10911 10913 10914 10916 10918 10919 10920 10920 10920 10920 10920 10920 10920 10919 10918 10917 10915 10914 10912 10910 10907 10904 10899 10896 10892 10888 10884 10880 10877 10873 10868 10863 10857 10853 10848 10841
10889 10893 10896 10898 10900 10902 10904 10906 10908 10910 10912 10914 10915 10915 10915 10915 10915 10915 10915 10914 10913 10912 10911 10909 10908 10906 10903 10899 10896 10892 10888 10885 10880 10877 10874 10869 10864 10859 10854 10849 10843 10838 10833
10884 10887 10890 10893 10895 10896 10899 10901 10903 10905 10907 10908 10909 10909 10909 10909 10909 10909 10909 10908 10907 10906 10904 10902 10900 10897 10894 10891 10887 10884 10878 10876 10871 10867 10864 10860 10854 10849 10845 10839 10834 10829 10823
10877 10881 10884 10887 10889 10891 10893 10896 10897 10899 10900 10901 10902 10903 10903 10903 10903 10902 10901 10900 10900 10899 10897 10894 10891 10888 10885 10881 10877 10873 10868 10866 10862 10858 10853 10849 10844 10838 10833 10828 10823 10817 10812
10870 10874 10877 10881 10884 10886 10888 10890 10891 10892 10893 10894 10895 10894 10895 10896 10896 10895 10895 10893 10892 10891 10889 10886 10882 10879 10875 10872 10868 10864 10859 10855 10853 10848 10844 10838 10833 10828 10823 10817 10811 10806 10801
10862 10867 10870 10874 10876 10879 10882 10884 10885 10885 10886 10887 10888 10888 10888 10887 10888 10887 10886 10885 10884 10882 10880 10877 10873 10870 10866 10862 10859 10855 10849 10844 10842 10838 10832 10826 10821 10816 10811 10805 10800 10795 10791
10853 10857 10862 10866 10869 10872 10875 10877 10877 10877 10878 10880 10881 10880 10879 10879 10879 10879 10878 10876 10874 10872 10870 10867 10864 10860 10856 10852 10849 10846 10841 10835 10830 10826 10822 10817 10811 10804 10798 10792 10787 10783 10779
10844 10849 10854 10858 10861 10865 10868 10869 10869 10870 10872 10873 10873 10874 10872 10871 10871 10870 10868 10866 10864 10862 10860 10856 10853 10849 10846 10842 10838 10834 10830 10824 10817 10813 10810 10805 10798 10793 10786 10780 10774 10770 10767
10833 10840 10846 10850 10853 10857 10859 10859 10860 10861 10863 10864 10864 10865 10865 10863 10862 10860 10858 10856 10853 10851 10849 10845 10841 10838 10835 10831 10827 10823 10818 10812 10806 10800 10795 10791 10786 10779 10773 10767 10762 10758 10754
10827 10831 10835 10840 10844 10847 10849 10851 10853 10853 10854 10855 10855 10856 10855 10853 10852 10850 10847 10845 10843 10840 10836 10833 10830 10826 10822 10818 10814 10810 10805 10800 10793 10787 10781 10775 10772 10767 10760 10754 10749 10745 10742
10818 10825 10827 10829 10833 10835 10839 10842 10843 10844 10846 10845 10846 10846 10845 10843 10842 10840 10837 10833 10832 10828 10826 10822 10817 10812 10808 10804 10800 10796 10793 10787 10780 10774 10767 10760 10756 10751 10746 10741 10736 10732 10728
10811 10814 10819 10821 10823 10825 10828 10830 10832 10834 10836 10835 10836 10836 10835 10833 10831 10829 10825 10823 10820 10817 10812 10808 10805 10799 10794 10789 10785 10783 10779 10774 10767 10759 10751 10745 10737 10733 10730 10727 10722 10718 10714
10802 10804 10807 10810 10811 10815 10819 10821 10824 10826 10824 10824 10824 10824 10823 10823 10822 10819 10815 10809 10807 10804 10799 10795 10790 10784 10777 10772 10769 10764 10759 10754 10751 10742 10733 10727 10721 10715 10712 10710 10706 10703 10699
10788 10791 10794 10799 10804 10807 10810 10813 10813 10815 10815 10815 10813 10812 10812 10810 10808 10808 10805 10800 10798 10793 10788 10783 10778 10771 10765 10757 10753 10747 10742 10737 10733 10726 10717 10710 10704 10698 10695 10692 10690 10687 10683
10775 10779 10782 10787 10793 10798 10801 10803 10804 10803 10804 10803 10802 10801 10800 10798 10796 10794 10788 10785 10781 10780 10774 10769 10764 10757 10751 10743 10738 10732 10727 10718 10711 10704 10703 10693 10684 10678 10674 10670 10668 10668 10666
10759 10765 10772 10778 10781 10784 10788 10791 10792 10793 10793 10792 10792 10791 10788 10786 10782 10780 10777 10771 10764 10761 10759 10753 10747 10743 10736 10727 10719 10711 10707 10699 10688 10683 10677 10673 10666 10660 10653 10647 10644 10644 10644
10746 10754 10761 10765 10770 10771 10772 10776 10778 10779 10779 10779 10779 10779 10777 10774 10771 10769 10766 10761 10755 10749 10742 10736 10731 10726 10719 10711 10700 10689 10682 10678 10667 10659 10652 10648 10645 10640 10632 10625 10621 10620 10620
10732 10739 10746 10751 10755 10759 10762 10764 10765 10766 10765 10764 10762 10760 10755 10754 10754 10752 10750 10747 10746 10739 10731 10723 10715 10709 10700 10693 10680 10669 10659 10653 10647 10646 10634 10621 10616 10614 10608 10602 10599 10596 10595
10718 10725 10732 10737 10741 10744 10748 10750 10751 10752 10753 10751 10750 10747 10743 10737 10733 10730 10727 10726 10724 10721 10716 10707 10698 10690 10681 10673 10661 10650 10641 10632 10623 10615 10612 10602 10586 10578 10575 10573 10570 10570 10571
10704 10711 10718 10723 10726 10728 10731 10733 10735 10736 10736 10736 10737 10736 10732 10726 10721 10716 10711 10707 10702 10698 10693 10689 10682 10671 10662 10651 10643 10630 10620 10611 10601 10591 10579 10573 10564 10554 10547 10543 10543 10543 10544